TimeMDT,TemperatureF,Dew PointF,Humidity,Sea Level PressureIn,VisibilityMPH,Wind Direction,Wind SpeedMPH,Gust SpeedMPH,PrecipitationIn,Events,Conditions,WindDirDegrees,DateUTC
12:53 AM,63.0,36.0,37,30.01,9.0,WNW,9.2,-,N/A,,Clear,300,2013-08-13 06:53:00
1:53 AM,62.1,35.1,37,30.02,9.0,West,5.8,-,N/A,,Clear,280,2013-08-13 07:53:00
2:53 AM,60.1,35.1,39,30.00,9.0,SW,3.5,-,N/A,,Clear,230,2013-08-13 08:53:00
3:53 AM,55.9,36.0,47,30.01,9.0,Calm,Calm,-,N/A,,Clear,0,2013-08-13 09:53:00
4:53 AM,55.0,36.0,49,30.05,10.0,NE,3.5,-,N/A,,Clear,40,2013-08-13 10:53:00
5:53 AM,57.9,35.1,42,30.05,10.0,WSW,13.8,-,N/A,,Clear,240,2013-08-13 11:53:00
6:53 AM,62.1,36.0,38,30.04,9.0,WSW,8.1,-,N/A,,Partly Cloudy,240,2013-08-13 12:53:00
7:53 AM,57.9,37.9,47,30.07,8.0,ESE,3.5,-,N/A,,Clear,110,2013-08-13 13:53:00
8:53 AM,64.0,39.0,40,30.09,9.0,South,4.6,-,N/A,,Clear,190,2013-08-13 14:53:00
9:53 AM,68.0,39.0,35,30.09,9.0,Calm,Calm,-,N/A,,Clear,0,2013-08-13 15:53:00
10:53 AM,72.0,41.0,33,30.07,9.0,Calm,Calm,-,N/A,,Clear,0,2013-08-13 16:53:00
11:53 AM,73.9,41.0,30,30.06,9.0,Calm,Calm,-,N/A,,Clear,0,2013-08-13 17:53:00
12:53 PM,72.0,44.1,37,30.06,9.0,SSW,4.6,-,N/A,,Clear,210,2013-08-13 18:53:00
1:53 PM,80.1,39.0,23,30.01,9.0,SE,6.9,-,N/A,,Clear,140,2013-08-13 19:53:00
2:53 PM,81.0,37.0,21,29.99,9.0,East,5.8,-,N/A,,Clear,90,2013-08-13 20:53:00
3:53 PM,81.0,39.0,22,30.01,9.0,NNW,8.1,-,N/A,,Clear,340,2013-08-13 21:53:00
4:53 PM,75.9,36.0,23,30.03,9.0,NW,19.6,33.4,N/A,,Clear,320,2013-08-13 22:53:00
5:53 PM,75.9,35.1,23,30.02,10.0,WNW,10.4,-,N/A,,Clear,290,2013-08-13 23:53:00
6:53 PM,75.9,35.1,23,30.01,10.0,ENE,3.5,-,N/A,,Clear,60,2013-08-14 00:53:00
7:53 PM,72.0,35.1,26,30.06,9.0,NNW,13.8,-,N/A,,Clear,340,2013-08-14 01:53:00
8:53 PM,68.0,36.0,31,30.08,9.0,Calm,Calm,-,N/A,,Clear,0,2013-08-14 02:53:00
9:53 PM,64.0,36.0,35,30.09,10.0,WSW,12.7,-,N/A,,Clear,250,2013-08-14 03:53:00
10:53 PM,62.1,36.0,38,30.09,10.0,West,11.5,-,N/A,,Clear,260,2013-08-14 04:53:00
11:53 PM,63.0,35.1,35,30.08,10.0,WSW,3.5,-,N/A,,Clear,240,2013-08-14 05:53:00